User: anonymous   Login
Location: El Centro
(32.7920°N, 115.5620°W)
Time: 10:41:52
(UTC-07:00)
Language:

Hamsat - Orbit

View from above orbital plane
View from above orbital plane
View from above satellite
View from above satellite

Ground track
Ground track

The orbit data is extracted from the following two-line orbital elements,

1 28650U 05017B   17144.22612616 +.00000328 +00000-0 +40816-4 0  9993
2 28650 097.6492 119.3787 0022748 206.6576 153.3473 14.88654267652539
Epoch (UTC): 24 May 2017 05:25:37
Eccentricity: 0.0022748
inclination: 97.6492°
perigee height: 586 km
apogee height: 618 km
right ascension of ascending node: 119.3787°
argument of perigee: 206.6576°
revolutions per day: 14.88654267
mean anomaly at epoch: 153.3473°
orbit number at epoch: 65253

The dashed part of the orbit path shows where the satellite is in the earth's shadow,  

DLR